Volver al catálogo

STARLINK-37361

ActivoComunicacionesSSO
NORAD 69134·PAYLOAD·🇺🇸 United States

Lanzado May 20, 2026 desde Vandenberg Space Force Base

Loading…

Próximos Pases (próximas 24 horas)

TLE

ActualizadoSource: CelesTrak SupGP

Época: Sep 14, 2026, 22:42 UTC

1 69134C 26110L   26257.94631944  .00085477  00000+0  26542-2 0  2573
2 69134  97.2851  93.0769 0001763  92.4023 300.2468 15.33386101    13

Sigue STARLINK-37361 en tiempo real con AllMySat

Download on the App Store